Time,TemperatureF,DewpointF,PressureIn,WindDirection,WindDirectionDegrees,WindSpeedMPH,WindSpeedGustMPH,Humidity,HourlyPrecipIn,Conditions,Clouds,dailyrainin,SolarRadiationWatts/m^2,SoftwareType,DateUTC
2013-07-29 00:00:00,55.4,-99.9,20.00,SSE,149,7.0,7.0,255,0.00,,,0.00,0,Wunderground v.1.15,2013-07-29 07:00:00,
2013-07-29 00:10:00,55.3,-99.9,20.00,SE,137,6.0,6.0,255,0.00,,,0.00,0,Wunderground v.1.15,2013-07-29 07:10:00,
2013-07-29 00:20:00,55.2,-99.9,20.00,SE,141,5.0,5.0,255,0.00,,,0.00,0,Wunderground v.1.15,2013-07-29 07:20:00,
2013-07-29 00:25:00,55.1,-99.9,20.00,SE,141,3.0,5.0,255,0.00,,,0.00,0,Wunderground v.1.15,2013-07-29 07:25:00,
2013-07-29 00:35:00,54.9,-99.9,20.00,SE,139,2.0,5.0,255,0.00,,,0.00,0,Wunderground v.1.15,2013-07-29 07:35:00,
2013-07-29 00:45:00,54.6,-99.9,20.00,SE,139,4.0,4.0,255,0.00,,,0.00,0,Wunderground v.1.15,2013-07-29 07:45:00,
2013-07-29 00:55:00,54.3,-99.9,20.00,SE,135,5.0,5.0,255,0.00,,,0.00,0,Wunderground v.1.15,2013-07-29 07:55:00,
2013-07-29 01:00:00,54.1,-99.9,20.00,SE,132,6.0,6.0,255,0.00,,,0.00,0,Wunderground v.1.15,2013-07-29 08:00:00,
2013-07-29 01:10:00,54.3,-99.9,20.00,SE,129,2.0,2.0,255,0.00,,,0.00,0,Wunderground v.1.15,2013-07-29 08:10:00,
2013-07-29 01:20:00,54.1,-99.9,20.00,SE,132,3.0,3.0,255,0.00,,,0.00,0,Wunderground v.1.15,2013-07-29 08:20:00,
2013-07-29 01:30:00,54.1,-99.9,20.00,SE,132,2.0,2.0,255,0.00,,,0.00,0,Wunderground v.1.15,2013-07-29 08:30:00,
2013-07-29 01:40:00,53.9,-99.9,20.00,SE,132,3.0,3.0,255,0.00,,,0.00,0,Wunderground v.1.15,2013-07-29 08:40:00,
2013-07-29 01:50:00,53.4,-99.9,20.00,SE,132,5.0,5.0,255,0.00,,,0.00,0,Wunderground v.1.15,2013-07-29 08:50:00,
2013-07-29 02:00:00,53.5,-99.9,20.00,SE,132,2.0,2.0,255,0.00,,,0.00,0,Wunderground v.1.15,2013-07-29 09:00:00,
2013-07-29 02:10:00,53.4,-99.9,20.00,SE,132,3.0,3.0,255,0.00,,,0.00,0,Wunderground v.1.15,2013-07-29 09:10:00,
2013-07-29 02:15:00,53.0,-99.9,20.00,SE,132,3.0,3.0,255,0.00,,,0.00,0,Wunderground v.1.15,2013-07-29 09:15:00,
2013-07-29 02:25:00,52.7,-99.9,20.00,SE,132,5.0,5.0,255,0.00,,,0.00,0,Wunderground v.1.15,2013-07-29 09:25:00,
2013-07-29 02:35:00,52.9,-99.9,20.00,SE,132,1.0,4.0,255,0.00,,,0.00,0,Wunderground v.1.15,2013-07-29 09:35:00,
2013-07-29 02:45:00,52.6,-99.9,20.00,SE,132,1.0,2.0,255,0.00,,,0.00,0,Wunderground v.1.15,2013-07-29 09:45:00,
2013-07-29 02:55:00,52.4,-99.9,20.00,SE,132,1.0,1.0,255,0.00,,,0.00,0,Wunderground v.1.15,2013-07-29 09:55:00,
2013-07-29 03:00:00,52.5,-99.9,20.00,SE,132,0.0,0.0,255,0.00,,,0.00,0,Wunderground v.1.15,2013-07-29 10:00:00,
2013-07-29 03:10:00,52.6,-99.9,20.00,SE,132,0.0,0.0,255,0.00,,,0.00,0,Wunderground v.1.15,2013-07-29 10:10:00,
2013-07-29 03:20:00,52.7,-99.9,20.00,SE,132,2.0,2.0,255,0.00,,,0.00,0,Wunderground v.1.15,2013-07-29 10:20:00,
2013-07-29 03:30:00,52.5,-99.9,20.00,South,184,2.0,2.0,255,0.00,,,0.00,0,Wunderground v.1.15,2013-07-29 10:30:00,
2013-07-29 03:40:00,52.5,-99.9,20.00,SSW,201,2.0,2.0,255,0.00,,,0.00,0,Wunderground v.1.15,2013-07-29 10:40:00,
2013-07-29 03:50:00,52.5,-99.9,20.00,SSW,213,0.0,0.0,255,0.00,,,0.00,0,Wunderground v.1.15,2013-07-29 10:50:00,
2013-07-29 04:00:00,52.2,-99.9,20.00,SSW,213,3.0,3.0,255,0.00,,,0.00,0,Wunderground v.1.15,2013-07-29 11:00:00,
2013-07-29 04:10:00,52.6,-99.9,20.00,SSW,213,1.0,1.0,255,0.00,,,0.00,0,Wunderground v.1.15,2013-07-29 11:10:00,
2013-07-29 04:20:00,52.6,-99.9,20.00,SSW,213,3.0,3.0,255,0.00,,,0.00,0,Wunderground v.1.15,2013-07-29 11:20:00,
2013-07-29 04:25:00,52.6,-99.9,20.00,SSW,213,1.0,3.0,255,0.00,,,0.00,0,Wunderground v.1.15,2013-07-29 11:25:00,
2013-07-29 04:35:00,52.6,-99.9,20.00,SSW,213,3.0,3.0,255,0.00,,,0.00,0,Wunderground v.1.15,2013-07-29 11:35:00,
2013-07-29 04:45:00,52.6,-99.9,20.00,SSW,213,0.0,4.0,255,0.00,,,0.00,0,Wunderground v.1.15,2013-07-29 11:45:00,
2013-07-29 04:55:00,52.8,-99.9,20.00,SW,214,2.0,3.0,255,0.00,,,0.00,0,Wunderground v.1.15,2013-07-29 11:55:00,
2013-07-29 05:00:00,52.8,-99.9,20.00,SW,216,3.0,3.0,255,0.00,,,0.00,0,Wunderground v.1.15,2013-07-29 12:00:00,
2013-07-29 05:10:00,52.7,-99.9,20.00,SW,218,1.0,1.0,255,0.00,,,0.00,0,Wunderground v.1.15,2013-07-29 12:10:00,
2013-07-29 05:15:00,52.6,-99.9,20.00,SW,218,3.0,3.0,255,0.00,,,0.00,0,Wunderground v.1.15,2013-07-29 12:15:00,
2013-07-29 05:25:00,52.7,-99.9,20.00,SW,218,0.0,2.0,255,0.00,,,0.00,0,Wunderground v.1.15,2013-07-29 12:25:00,
2013-07-29 05:40:00,52.7,-99.9,20.00,SW,226,1.0,1.0,255,0.00,,,0.00,0,Wunderground v.1.15,2013-07-29 12:40:00,
2013-07-29 05:50:00,52.6,-99.9,20.00,SW,227,3.0,3.0,255,0.00,,,0.00,0,Wunderground v.1.15,2013-07-29 12:50:00,
2013-07-29 06:00:00,52.6,-99.9,20.00,SW,230,3.0,3.0,255,0.00,,,0.00,0,Wunderground v.1.15,2013-07-29 13:00:00,
2013-07-29 06:10:00,52.8,-99.9,20.00,SW,231,3.0,3.0,255,0.00,,,0.00,0,Wunderground v.1.15,2013-07-29 13:10:00,
2013-07-29 06:20:00,53.6,-99.9,20.00,SW,231,4.0,4.0,255,0.00,,,0.00,0,Wunderground v.1.15,2013-07-29 13:20:00,
2013-07-29 06:30:00,54.4,-99.9,20.00,SW,231,0.0,0.0,255,0.00,,,0.00,0,Wunderground v.1.15,2013-07-29 13:30:00,
2013-07-29 06:40:00,54.5,-99.9,20.00,SW,231,2.0,2.0,255,0.00,,,0.00,0,Wunderground v.1.15,2013-07-29 13:40:00,
2013-07-29 06:50:00,54.2,-99.9,20.00,SW,231,3.0,3.0,255,0.00,,,0.00,0,Wunderground v.1.15,2013-07-29 13:50:00,
2013-07-29 07:00:00,54.3,-99.9,20.00,SW,231,3.0,3.0,255,0.00,,,0.00,0,Wunderground v.1.15,2013-07-29 14:00:00,
2013-07-29 07:10:00,54.8,-99.9,20.00,SW,232,2.0,2.0,255,0.00,,,0.00,0,Wunderground v.1.15,2013-07-29 14:10:00,
2013-07-29 07:15:00,54.6,-99.9,20.00,SW,231,4.0,4.0,255,0.00,,,0.00,0,Wunderground v.1.15,2013-07-29 14:15:00,
2013-07-29 07:25:00,55.3,-99.9,20.00,SW,231,3.0,4.0,255,0.00,,,0.00,0,Wunderground v.1.15,2013-07-29 14:25:00,
2013-07-29 07:40:00,56.1,-99.9,20.00,SW,222,3.0,3.0,255,0.00,,,0.00,0,Wunderground v.1.15,2013-07-29 14:40:00,
2013-07-29 07:45:00,56.0,-99.9,20.00,SW,236,3.0,3.0,255,0.00,,,0.00,0,Wunderground v.1.15,2013-07-29 14:45:00,
2013-07-29 07:55:00,56.2,-99.9,20.00,SW,224,2.0,6.0,255,0.00,,,0.00,0,Wunderground v.1.15,2013-07-29 14:55:00,
2013-07-29 08:00:00,56.3,-99.9,20.00,SW,228,3.0,3.0,255,0.00,,,0.00,0,Wunderground v.1.15,2013-07-29 15:00:00,
2013-07-29 08:10:00,56.9,-99.9,20.00,SW,226,5.0,5.0,255,0.00,,,0.00,0,Wunderground v.1.15,2013-07-29 15:10:00,
2013-07-29 08:15:00,56.5,-99.9,20.00,SW,231,4.0,5.0,255,0.00,,,0.00,0,Wunderground v.1.15,2013-07-29 15:15:00,
2013-07-29 08:25:00,56.4,-99.9,20.00,SW,231,4.0,6.0,255,0.00,,,0.00,0,Wunderground v.1.15,2013-07-29 15:25:00,
2013-07-29 08:35:00,57.1,-99.9,20.00,SW,229,5.0,5.0,255,0.00,,,0.00,0,Wunderground v.1.15,2013-07-29 15:35:00,
2013-07-29 08:40:00,57.4,-99.9,20.00,WSW,241,5.0,5.0,255,0.00,,,0.00,0,Wunderground v.1.15,2013-07-29 15:40:00,
2013-07-29 08:50:00,58.3,-99.9,20.00,SW,230,3.0,3.0,255,0.00,,,0.00,0,Wunderground v.1.15,2013-07-29 15:50:00,
2013-07-29 09:00:00,59.4,-99.9,20.00,SW,234,3.0,3.0,255,0.00,,,0.00,0,Wunderground v.1.15,2013-07-29 16:00:00,
2013-07-29 09:10:00,60.1,-99.9,20.00,SW,227,2.0,2.0,255,0.00,,,0.00,0,Wunderground v.1.15,2013-07-29 16:10:00,
2013-07-29 09:15:00,59.8,-99.9,20.00,SW,229,5.0,5.0,255,0.00,,,0.00,0,Wunderground v.1.15,2013-07-29 16:15:00,
2013-07-29 09:25:00,60.2,-99.9,20.00,WSW,237,4.0,4.0,255,0.00,,,0.00,0,Wunderground v.1.15,2013-07-29 16:25:00,
2013-07-29 09:30:00,60.7,-99.9,20.00,SW,232,6.0,6.0,255,0.00,,,0.00,0,Wunderground v.1.15,2013-07-29 16:30:00,
2013-07-29 09:40:00,61.1,-99.9,20.00,WSW,245,3.0,3.0,255,0.00,,,0.00,0,Wunderground v.1.15,2013-07-29 16:40:00,
2013-07-29 09:50:00,64.8,-99.9,20.00,WSW,241,1.0,1.0,255,0.00,,,0.00,0,Wunderground v.1.15,2013-07-29 16:50:00,
2013-07-29 10:00:00,63.6,-99.9,20.00,WSW,255,4.0,4.0,255,0.00,,,0.00,0,Wunderground v.1.15,2013-07-29 17:00:00,
2013-07-29 10:10:00,64.2,-99.9,20.00,SW,233,3.0,3.0,255,0.00,,,0.00,0,Wunderground v.1.15,2013-07-29 17:10:00,
2013-07-29 10:20:00,67.4,-99.9,20.00,SW,228,4.0,4.0,255,0.00,,,0.00,0,Wunderground v.1.15,2013-07-29 17:20:00,
2013-07-29 10:30:00,72.0,-99.9,20.00,WSW,245,2.0,2.0,255,0.00,,,0.00,0,Wunderground v.1.15,2013-07-29 17:30:00,
2013-07-29 10:40:00,70.6,-99.9,20.00,SW,221,3.0,3.0,255,0.00,,,0.00,0,Wunderground v.1.15,2013-07-29 17:40:00,
2013-07-29 10:45:00,74.1,-99.9,20.00,SW,229,5.0,5.0,255,0.00,,,0.00,0,Wunderground v.1.15,2013-07-29 17:45:00,
2013-07-29 10:55:00,74.4,-99.9,20.00,WSW,246,6.0,7.0,255,0.00,,,0.00,0,Wunderground v.1.15,2013-07-29 17:55:00,
2013-07-29 11:00:00,71.0,-99.9,20.00,SW,234,5.0,5.0,255,0.00,,,0.00,0,Wunderground v.1.15,2013-07-29 18:00:00,
2013-07-29 11:10:00,72.8,-99.9,20.00,SSW,213,6.0,6.0,255,0.00,,,0.00,0,Wunderground v.1.15,2013-07-29 18:10:00,
2013-07-29 11:15:00,69.6,-99.9,20.00,SW,215,3.0,6.0,255,0.00,,,0.00,0,Wunderground v.1.15,2013-07-29 18:15:00,
2013-07-29 11:25:00,73.9,-99.9,20.00,SW,217,3.0,3.0,255,0.00,,,0.00,0,Wunderground v.1.15,2013-07-29 18:25:00,
2013-07-29 11:30:00,71.4,-99.9,20.00,SW,233,3.0,3.0,255,0.00,,,0.00,0,Wunderground v.1.15,2013-07-29 18:30:00,
2013-07-29 11:40:00,73.1,-99.9,20.00,WSW,241,5.0,5.0,255,0.00,,,0.00,0,Wunderground v.1.15,2013-07-29 18:40:00,
2013-07-29 11:55:00,76.6,-99.9,20.00,SW,231,3.0,4.0,255,0.00,,,0.00,0,Wunderground v.1.15,2013-07-29 18:55:00,
2013-07-29 12:00:00,74.9,-99.9,20.00,South,189,5.0,5.0,255,0.00,,,0.00,0,Wunderground v.1.15,2013-07-29 19:00:00,
2013-07-29 12:10:00,77.1,-99.9,20.00,SSW,213,5.0,5.0,255,0.00,,,0.00,0,Wunderground v.1.15,2013-07-29 19:10:00,
2013-07-29 12:20:00,75.2,-99.9,20.00,SW,235,3.0,3.0,255,0.00,,,0.00,0,Wunderground v.1.15,2013-07-29 19:20:00,
2013-07-29 12:30:00,75.1,-99.9,20.00,SW,222,5.0,5.0,255,0.00,,,0.00,0,Wunderground v.1.15,2013-07-29 19:30:00,
2013-07-29 12:40:00,72.1,-99.9,20.00,South,191,0.0,0.0,255,0.00,,,0.00,0,Wunderground v.1.15,2013-07-29 19:40:00,
2013-07-29 12:50:00,74.7,-99.9,20.00,SW,236,4.0,4.0,255,0.00,,,0.00,0,Wunderground v.1.15,2013-07-29 19:50:00,
2013-07-29 13:00:00,73.8,-99.9,20.00,WSW,251,6.0,6.0,255,0.00,,,0.00,0,Wunderground v.1.15,2013-07-29 20:00:00,
2013-07-29 13:10:00,76.9,-99.9,20.00,SW,231,5.0,5.0,255,0.00,,,0.00,0,Wunderground v.1.15,2013-07-29 20:10:00,
2013-07-29 13:20:00,75.9,-99.9,20.00,SW,221,4.0,4.0,255,0.00,,,0.00,0,Wunderground v.1.15,2013-07-29 20:20:00,
2013-07-29 13:25:00,74.8,-99.9,20.00,SW,235,5.0,5.0,255,0.00,,,0.00,0,Wunderground v.1.15,2013-07-29 20:25:00,
2013-07-29 13:35:00,75.5,-99.9,20.00,SW,233,3.0,4.0,255,0.00,,,0.00,0,Wunderground v.1.15,2013-07-29 20:35:00,
2013-07-29 13:45:00,76.7,-99.9,20.00,WSW,253,5.0,5.0,255,0.00,,,0.00,0,Wunderground v.1.15,2013-07-29 20:45:00,
2013-07-29 13:50:00,74.6,-99.9,20.00,SSW,212,4.0,4.0,255,0.00,,,0.00,0,Wunderground v.1.15,2013-07-29 20:50:00,
2013-07-29 14:00:00,73.6,-99.9,20.00,SW,233,2.0,2.0,255,0.00,,,0.00,0,Wunderground v.1.15,2013-07-29 21:00:00,
2013-07-29 14:10:00,72.1,-99.9,20.00,SW,216,8.0,8.0,255,0.00,,,0.00,0,Wunderground v.1.15,2013-07-29 21:10:00,
2013-07-29 14:20:00,73.1,-99.9,20.00,SW,230,7.0,7.0,255,0.00,,,0.00,0,Wunderground v.1.15,2013-07-29 21:20:00,
2013-07-29 14:30:00,72.7,-99.9,20.00,SSW,202,7.0,7.0,255,0.00,,,0.00,0,Wunderground v.1.15,2013-07-29 21:30:00,
2013-07-29 14:40:00,72.4,-99.9,20.00,SSW,209,4.0,4.0,255,0.00,,,0.00,0,Wunderground v.1.15,2013-07-29 21:40:00,
2013-07-29 14:50:00,71.3,-99.9,20.00,SW,236,6.0,6.0,255,0.00,,,0.00,0,Wunderground v.1.15,2013-07-29 21:50:00,
2013-07-29 15:00:00,72.7,-99.9,20.00,WSW,238,3.0,3.0,255,0.00,,,0.00,0,Wunderground v.1.15,2013-07-29 22:00:00,
2013-07-29 15:10:00,71.0,-99.9,20.00,SSW,206,6.0,6.0,255,0.00,,,0.00,0,Wunderground v.1.15,2013-07-29 22:10:00,
2013-07-29 15:20:00,72.8,-99.9,20.00,WSW,243,2.0,2.0,255,0.00,,,0.00,0,Wunderground v.1.15,2013-07-29 22:20:00,
2013-07-29 15:25:00,72.4,-99.9,20.00,SSW,199,2.0,2.0,255,0.00,,,0.00,0,Wunderground v.1.15,2013-07-29 22:25:00,
2013-07-29 15:40:00,70.9,-99.9,20.00,SSW,205,5.0,5.0,255,0.00,,,0.00,0,Wunderground v.1.15,2013-07-29 22:40:00,
2013-07-29 15:50:00,71.4,-99.9,20.00,WNW,292,1.0,1.0,255,0.00,,,0.00,0,Wunderground v.1.15,2013-07-29 22:50:00,
2013-07-29 16:00:00,70.1,-99.9,20.00,South,183,7.0,7.0,255,0.00,,,0.00,0,Wunderground v.1.15,2013-07-29 23:00:00,
2013-07-29 16:10:00,69.0,-99.9,20.00,South,183,7.0,7.0,255,0.00,,,0.00,0,Wunderground v.1.15,2013-07-29 23:10:00,
2013-07-29 16:25:00,70.4,-99.9,20.00,SW,234,3.0,3.0,255,0.00,,,0.00,0,Wunderground v.1.15,2013-07-29 23:25:00,
2013-07-29 16:30:00,71.1,-99.9,20.00,WSW,241,0.0,0.0,255,0.00,,,0.00,0,Wunderground v.1.15,2013-07-29 23:30:00,
2013-07-29 16:40:00,71.2,-99.9,20.00,SW,234,4.0,4.0,255,0.00,,,0.00,0,Wunderground v.1.15,2013-07-29 23:40:00,
2013-07-29 16:45:00,69.8,-99.9,20.00,WSW,239,5.0,5.0,255,0.00,,,0.00,0,Wunderground v.1.15,2013-07-29 23:45:00,
2013-07-29 16:55:00,71.3,-99.9,20.00,SW,220,7.0,7.0,255,0.00,,,0.00,0,Wunderground v.1.15,2013-07-29 23:55:00,
2013-07-29 17:00:00,70.9,-99.9,20.00,SW,230,6.0,6.0,255,0.00,,,0.00,0,Wunderground v.1.15,2013-07-30 00:00:00,
2013-07-29 17:10:00,70.3,-99.9,20.00,SW,236,4.0,4.0,255,0.00,,,0.00,0,Wunderground v.1.15,2013-07-30 00:10:00,
2013-07-29 17:20:00,69.6,-99.9,20.00,SSW,204,2.0,2.0,255,0.00,,,0.00,0,Wunderground v.1.15,2013-07-30 00:20:00,
2013-07-29 17:30:00,69.7,-99.9,20.00,SW,225,2.0,2.0,255,0.00,,,0.00,0,Wunderground v.1.15,2013-07-30 00:30:00,
2013-07-29 17:45:00,68.8,-99.9,20.00,SSW,197,5.0,5.0,255,0.00,,,0.00,0,Wunderground v.1.15,2013-07-30 00:45:00,
2013-07-29 17:50:00,68.6,-99.9,20.00,SW,230,2.0,2.0,255,0.00,,,0.00,0,Wunderground v.1.15,2013-07-30 00:50:00,
2013-07-29 18:00:00,69.1,-99.9,20.00,WSW,240,0.0,0.0,255,0.00,,,0.00,0,Wunderground v.1.15,2013-07-30 01:00:00,
2013-07-29 18:15:00,67.9,-99.9,20.00,SW,225,5.0,5.0,255,0.00,,,0.00,0,Wunderground v.1.15,2013-07-30 01:15:00,
2013-07-29 18:20:00,68.1,-99.9,20.00,SW,231,4.0,4.0,255,0.00,,,0.00,0,Wunderground v.1.15,2013-07-30 01:20:00,
2013-07-29 18:30:00,68.4,-99.9,20.00,WSW,247,4.0,4.0,255,0.00,,,0.00,0,Wunderground v.1.15,2013-07-30 01:30:00,
2013-07-29 18:40:00,67.6,-99.9,20.00,WSW,240,5.0,5.0,255,0.00,,,0.00,0,Wunderground v.1.15,2013-07-30 01:40:00,
2013-07-29 18:50:00,66.8,-99.9,20.00,SW,234,6.0,6.0,255,0.00,,,0.00,0,Wunderground v.1.15,2013-07-30 01:50:00,
2013-07-29 19:00:00,66.5,-99.9,20.00,WSW,254,4.0,4.0,255,0.00,,,0.00,0,Wunderground v.1.15,2013-07-30 02:00:00,
2013-07-29 19:10:00,66.4,-99.9,20.00,WSW,255,4.0,4.0,255,0.00,,,0.00,0,Wunderground v.1.15,2013-07-30 02:10:00,
2013-07-29 19:20:00,66.4,-99.9,20.00,West,265,1.0,1.0,255,0.00,,,0.00,0,Wunderground v.1.15,2013-07-30 02:20:00,
2013-07-29 19:30:00,66.0,-99.9,20.00,SW,220,3.0,3.0,255,0.00,,,0.00,0,Wunderground v.1.15,2013-07-30 02:30:00,
2013-07-29 19:40:00,65.5,-99.9,20.00,SW,219,4.0,4.0,255,0.00,,,0.00,0,Wunderground v.1.15,2013-07-30 02:40:00,
2013-07-29 19:50:00,64.9,-99.9,20.00,WSW,247,3.0,3.0,255,0.00,,,0.00,0,Wunderground v.1.15,2013-07-30 02:50:00,
2013-07-29 20:00:00,64.3,-99.9,20.00,WSW,238,2.0,2.0,255,0.00,,,0.00,0,Wunderground v.1.15,2013-07-30 03:00:00,
2013-07-29 20:10:00,64.0,-99.9,20.00,SW,227,4.0,4.0,255,0.00,,,0.00,0,Wunderground v.1.15,2013-07-30 03:10:00,
2013-07-29 20:20:00,63.4,-99.9,20.00,SW,233,2.0,2.0,255,0.00,,,0.00,0,Wunderground v.1.15,2013-07-30 03:20:00,
2013-07-29 20:25:00,63.1,-99.9,20.00,SW,233,1.0,2.0,255,0.00,,,0.00,0,Wunderground v.1.15,2013-07-30 03:25:00,
2013-07-29 20:30:00,63.3,-99.9,20.00,SW,233,3.0,3.0,255,0.00,,,0.00,0,Wunderground v.1.15,2013-07-30 03:30:00,
2013-07-29 20:40:00,62.0,-99.9,20.00,SW,233,0.0,0.0,255,0.00,,,0.00,0,Wunderground v.1.15,2013-07-30 03:40:00,
2013-07-29 20:50:00,61.5,-99.9,20.00,SW,233,1.0,1.0,255,0.00,,,0.00,0,Wunderground v.1.15,2013-07-30 03:50:00,
2013-07-29 21:00:00,60.5,-99.9,20.00,SW,233,3.0,3.0,255,0.00,,,0.00,0,Wunderground v.1.15,2013-07-30 04:00:00,
2013-07-29 21:05:00,60.3,-99.9,20.00,SW,233,3.0,3.0,255,0.00,,,0.00,0,Wunderground v.1.15,2013-07-30 04:05:00,
2013-07-29 21:10:00,60.3,-99.9,20.00,SW,235,1.0,1.0,255,0.00,,,0.00,0,Wunderground v.1.15,2013-07-30 04:10:00,
2013-07-29 21:20:00,59.8,-99.9,20.00,WSW,256,2.0,2.0,255,0.00,,,0.00,0,Wunderground v.1.15,2013-07-30 04:20:00,
2013-07-29 21:30:00,59.1,-99.9,20.00,WSW,249,1.0,1.0,255,0.00,,,0.00,0,Wunderground v.1.15,2013-07-30 04:30:00,
2013-07-29 21:35:00,58.7,-99.9,20.00,WSW,249,2.0,2.0,255,0.00,,,0.00,0,Wunderground v.1.15,2013-07-30 04:35:00,
2013-07-29 21:45:00,58.5,-99.9,20.00,WSW,249,2.0,2.0,255,0.00,,,0.00,0,Wunderground v.1.15,2013-07-30 04:45:00,
2013-07-29 21:50:00,58.2,-99.9,20.00,WSW,249,0.0,0.0,255,0.00,,,0.00,0,Wunderground v.1.15,2013-07-30 04:50:00,
2013-07-29 22:00:00,57.9,-99.9,20.00,WSW,249,0.0,0.0,255,0.00,,,0.00,0,Wunderground v.1.15,2013-07-30 05:00:00,
2013-07-29 22:10:00,57.3,-99.9,20.00,WSW,249,0.0,0.0,255,0.00,,,0.00,0,Wunderground v.1.15,2013-07-30 05:10:00,
2013-07-29 22:20:00,57.1,-99.9,20.00,SW,225,2.0,2.0,255,0.00,,,0.00,0,Wunderground v.1.15,2013-07-30 05:20:00,
2013-07-29 22:25:00,56.7,-99.9,20.00,SW,225,4.0,4.0,255,0.00,,,0.00,0,Wunderground v.1.15,2013-07-30 05:25:00,
2013-07-29 22:30:00,56.9,-99.9,20.00,West,262,4.0,4.0,255,0.00,,,0.00,0,Wunderground v.1.15,2013-07-30 05:30:00,
2013-07-29 22:40:00,56.9,-99.9,20.00,WNW,299,4.0,4.0,255,0.00,,,0.00,0,Wunderground v.1.15,2013-07-30 05:40:00,
2013-07-29 22:45:00,55.4,-99.9,20.00,NW,321,0.0,4.0,255,0.00,,,0.00,0,Wunderground v.1.15,2013-07-30 05:45:00,
2013-07-29 22:55:00,54.3,-99.9,20.00,NW,321,0.0,2.0,255,0.00,,,0.00,0,Wunderground v.1.15,2013-07-30 05:55:00,
2013-07-29 23:00:00,54.2,-99.9,20.00,NW,321,1.0,1.0,255,0.00,,,0.00,0,Wunderground v.1.15,2013-07-30 06:00:00,
2013-07-29 23:10:00,54.9,-99.9,20.00,NW,321,1.0,1.0,255,0.00,,,0.00,0,Wunderground v.1.15,2013-07-30 06:10:00,
2013-07-29 23:20:00,54.9,-99.9,20.00,NNW,336,2.0,2.0,255,0.00,,,0.00,0,Wunderground v.1.15,2013-07-30 06:20:00,
2013-07-29 23:30:00,54.9,-99.9,20.00,NW,317,1.0,1.0,255,0.00,,,0.00,0,Wunderground v.1.15,2013-07-30 06:30:00,
2013-07-29 23:40:00,54.3,-99.9,20.00,NW,317,1.0,1.0,255,0.00,,,0.00,0,Wunderground v.1.15,2013-07-30 06:40:00,
2013-07-29 23:45:00,54.1,-99.9,20.00,NW,317,0.0,1.0,255,0.00,,,0.00,0,Wunderground v.1.15,2013-07-30 06:45:00,
2013-07-29 23:55:00,54.0,-99.9,20.00,NW,318,0.0,2.0,255,0.00,,,0.00,0,Wunderground v.1.15,2013-07-30 06:55:00,